Location: *
(45.9500°N, 9.0833°E)
Time: 15:14:25
(UTC+00:00)

Tiros 1 despin weight - All Passes

Search period start: 22 June 2021 00:00
Search period end: 02 July 2021 00:00
Orbit: 594 x 641 km, 48.2° (Epoch: 21 June)

Date Brightness Start Highest point End Pass type
(mag) Time Alt. Az. Time Alt. Az. Time Alt. Az.
22 Jun - 02:54:46 10° SSE 02:56:55 13° SE 02:59:04 10° ESE visible
22 Jun - 04:33:25 10° SW 04:37:44 53° SSE 04:42:02 10° ENE daylight
22 Jun - 06:14:50 10° W 06:19:14 70° N 06:23:39 10° ENE daylight
22 Jun - 07:56:35 10° WNW 08:01:01 74° NNE 08:05:27 10° E daylight
22 Jun - 09:38:13 10° WNW 09:42:27 45° SSW 09:46:42 10° SE daylight
22 Jun - 11:22:10 10° WSW 11:23:10 11° SW 11:24:10 10° SSW daylight
23 Jun - 03:09:17 10° SSW 03:12:51 24° SE 03:16:24 10° E daylight
23 Jun - 04:49:32 10° WSW 04:53:57 80° SSE 04:58:23 10° ENE daylight
23 Jun - 06:31:15 10° W 06:35:39 64° N 06:40:02 10° E daylight
23 Jun - 08:12:55 10° WNW 08:17:20 86° SSW 08:21:48 10° ESE daylight
23 Jun - 09:54:47 10° W 09:58:32 27° SW 10:02:18 10° SSE daylight
24 Jun - 03:24:45 10° SW 03:28:54 40° SSE 03:33:02 10° E daylight
24 Jun - 05:05:51 10° W 05:10:17 78° NNW 05:14:43 10° ENE daylight
24 Jun - 06:47:38 10° WNW 06:52:03 68° N 06:56:27 10° E daylight
24 Jun - 08:29:15 10° WNW 08:33:36 59° SSW 08:37:58 10° SE daylight
24 Jun - 10:11:50 10° W 10:14:30 16° SW 10:17:09 10° S daylight
25 Jun - 02:01:12 10° S 02:04:08 17° SE 02:07:02 10° E visible
25 Jun - 03:40:41 10° SW 03:45:04 64° SSE 03:49:27 10° ENE daylight
25 Jun - 05:22:15 10° W 05:26:39 66° N 05:31:03 10° ENE daylight
25 Jun - 07:03:59 10° WNW 07:08:25 81° NNE 07:12:51 10° ESE daylight
25 Jun - 08:45:41 10° W 08:49:45 37° SSW 08:53:50 10° SE daylight
26 Jun - 02:16:14 10° SSW 02:20:06 30° SE 02:23:58 10° E visible
26 Jun - 03:56:53 10° WSW 04:01:20 90° WNW 04:05:46 10° ENE daylight
26 Jun - 05:38:40 10° W 05:43:04 64° N 05:47:28 10° E daylight
26 Jun - 07:20:18 10° WNW 07:24:43 75° SSW 07:29:08 10° ESE daylight
26 Jun - 09:02:22 10° W 09:05:47 22° SW 09:09:11 10° S daylight
27 Jun - 00:53:44 10° SSE 00:55:27 12° SE 00:57:09 10° ESE visible
27 Jun - 02:31:55 10° SW 02:36:12 49° SSE 02:40:29 10° ENE visible
27 Jun - 04:13:15 10° W 04:17:41 72° N 04:22:06 10° ENE daylight
27 Jun - 05:55:02 10° WNW 05:59:27 72° N 06:03:52 10° E daylight
27 Jun - 07:36:39 10° WNW 07:40:56 49° SSW 07:45:12 10° SE daylight
27 Jun - 09:19:58 10° WSW 09:21:41 12° SW 09:23:24 10° SSW daylight
28 Jun - 01:07:55 10° S 01:11:21 22° SE 01:14:46 10° E visible
28 Jun - 02:47:58 10° WSW 02:52:25 75° SSE 02:56:50 10° ENE visible
28 Jun - 04:29:39 10° W 04:34:05 65° N 04:38:28 10° E daylight
28 Jun - 06:11:22 10° WNW 06:15:48 89° NNE 06:20:13 10° ESE daylight
28 Jun - 07:53:10 10° W 07:57:01 30° SW 08:00:53 10° SSE daylight
29 Jun - 01:23:16 10° SSW 01:27:23 37° SSE 01:31:28 10° E visible
29 Jun - 03:04:15 10° WSW 03:08:43 81° NNW 03:13:10 10° ENE daylight
29 Jun - 04:46:03 10° WNW 04:50:29 66° N 04:54:53 10° E daylight
29 Jun - 06:27:41 10° WNW 06:32:04 64° SSW 06:36:26 10° SE daylight
29 Jun - 08:10:05 10° W 08:13:00 17° SW 08:15:55 10° S daylight
29 Jun - 23:59:57 10° S 00:02:38 16° SE 00:05:18 10° E visible
30 Jun - 01:39:08 10° SW 01:43:32 59° SSE 01:47:54 10° ENE visible
30 Jun - 03:20:39 10° W 03:25:05 68° N 03:29:30 10° ENE daylight
30 Jun - 05:02:25 10° WNW 05:06:52 77° NNE 05:11:16 10° E daylight
30 Jun - 06:44:05 10° WNW 06:48:14 40° SSW 06:52:22 10° SE daylight
01 Jul - 00:14:47 10° SSW 00:18:35 27° SE 00:22:22 10° E visible
01 Jul - 01:55:17 10° WSW 01:59:47 85° SSE 02:04:13 10° ENE visible
01 Jul - 03:37:04 10° W 03:41:30 64° N 03:45:53 10° E daylight
01 Jul - 05:18:44 10° WNW 05:23:10 81° SSW 05:27:34 10° ESE daylight
01 Jul - 07:00:43 10° W 07:04:17 24° SW 07:07:51 10° SSE daylight
01 Jul - 22:52:55 10° SSE 22:53:57 11° SE 22:54:59 10° ESE visible
